Skip to main content Skip to accessibility
This website is not compatible with your web browser. You should install a newer browser. If you live in Jersey and need help upgrading call the States of Jersey web team on 440099.
Homegov.je

L'înformâtion et les sèrvices publyis pouor I'Île dé Jèrri

  • Choose the service you want to log in to:

  • gov.je

    Update your notification preferences

  • one.gov.je

    Access government and parish services

  • CAESAR

    Clear goods through customs or claim relief

  • Talentlink

    View or update your States of Jersey job application

Local METARs

METAR EGJJ 240250Z AUTO VRB02KT 4500 HZ BKN010/// OVC017/// 13/12 Q1004

METAR EGJB 240250Z 35003KT 3600 BR BKN004 BKN018 14/14 Q1004

METAR LFRD 240300Z AUTO VRB02KT 5000 BR OVC012 13/12 Q1004 TEMPO 2000 RA BKN004 BKN010TCU

METAR LFRC 240300Z AUTO 23003KT 5000 BR OVC011 12/12 Q1003

 

 

 

​Times are in Greenwich Mean Time (GMT) and not British Summer Time (BST). They will be one hour different during BST.

Back to top
rating button